CAPE
51 17 12 98 87 66 609 213 0 0 40 37 0 0 0 0 0 0 0 0 0 0 0 0 20 58 18 43 81 35 22 25
161 53 9 78 184 110 54 23 10 14 23 0 0 0 0 0 0 0 0 0 0 0 0 0 0 0 0 0 0 0 0 8
0 0 59 279 199 86 41 0 0 0 0 0 0 0 0 0 0 0 0 0 0 0 0 0 0 0 0 0 0 0 0 0
0 0 6 9 2 0 0 0 0 0 0 0 0 0 0 0 0 0 0 0 0 0 0 0 0 0 0 0 0 0 0 0
0 0 0 0 0 0 0 0 0 0 0 0 0 0 0 0 0 0 0 0 0 0 0 0 0 0 0 0 0 0 0 0
0 0 0 0 0 0 0 0 0 0 0 0 0 0 0 0 0 0 0 0 0 0 0 0 0 0 0 0 0 3 0 0
0 0 0 0 0 0 0 0 0 0 0 0 0 0 0 0 0 0 0 0 0 0 0 0 0 0 2 18 7 1 0 0
1 1 0 0 0 0 0 0 0 0 1 0 0 0 0 0 0 0 0 0 0 0 0 0 2 13 16 1 2 10 7 0
0 0 0 0 0 0 0 0 0 0 0 0 0 0 0 0 0 0 0 0 0 0 0 0 0 0 0 0 1 14 11 11
0 1 10 8 2 0 0 0 0 0 0 0 0 0 0 0 0 0 0 0 0 0 0 0 0 0 0 0 0 2 0 0
11 7 0 3 1 0 1 6 2 0 0 0 0 0 0 0 0 0 0 0 0 0 0 0 3 1 0 1 2 2 4 5
11 0 0 0 0 0 0 0 0 0 0 0 0 0 0 0 0 0 0 0 0 0 0 0 1 10 11 0 0 1 6 0
0 0 0 1 0 0 0 0 0 0 0 0 0 0 0 0 0 0 0 0 3 10 22 16 23 19 18 1 12 30 18 14
0 0 0 0 0 0 0 0 1 4 3 0 1 1 0 0 0 4 1 0 9 3 0 0 0 0 2 5 11 14 0 0
1 0 0 0 0 0 1 2 15 20 11 6 0 0 0 0 0 0 0 0 0 0 0 3 6 10 8 1 0 0 0 0
0 0 0 0 0 0 0 1 17 24 4 0 0 1 0 0 0 0 0 0 0 0 0 3 9 13 0 0 0 0 0 0
0 0 0 0 0 0 0 0 12 54 35 21 28 7 0 0 0 0 0 0 0 0 5 6 5 7 0 0 0 0 0 0
0 0 3 0 0 0 0 0 0 38 35 38 29 0 0 0 0 0 0 0 0 0 10 11 0 0 0 0 0 0 0 0
0 0 0 0 0 0 0 0 0 0 20 75 3 6 0 6 0 0 0 0 0 5 13 0 0 0 0 0 0 0 0 0
CIN
-37 -19 -9 -4 -12 -19 -19 -60 -0 -0 -24 -89 -0 -0 -0 -13 -0 -0 -0 -20 -0 -0 -0 -0 -24 -22 -26 -10 -5 -11 -15 -19
-89 -45 -62 -41 -19 -29 -97 -111 -102 -59 -52 -0 -0 -0 -0 -0 -0 -0 -0 -0 -0 -0 -0 -0 -0 -0 -0 -0 -0 -0 -0 -33
-0 -0 -102 -52 -47 -101 -141 -0 -0 -0 -0 -0 -0 -0 -0 -0 -0 -0 -0 -0 -0 -0 -0 -0 -0 -0 -0 -0 -0 -0 -0 -0
-0 -0 -184 -191 -75 -0 -0 -0 -0 -0 -0 -0 -0 -0 -0 -0 -0 -0 -0 -0 -0 -0 -0 -0 -0 -0 -0 -0 -0 -0 -0 -0
-0 -0 -0 -0 -0 -0 -0 -0 -0 -0 -0 -0 -0 -0 -0 -0 -0 -0 -0 -0 -0 -0 -0 -0 -0 -0 -0 -0 -0 -0 -0 -0
-0 -0 -0 -0 -0 -0 -0 -0 -0 -0 -0 -0 -0 -0 -0 -0 -0 -0 -0 -0 -0 -0 -0 -0 -0 -0 -0 -0 -0 -15 -0 -0
-0 -0 -0 -0 -0 -0 -0 -0 -0 -0 -0 -0 -0 -0 -0 -0 -0 -0 -0 -0 -0 -0 -0 -0 -0 -0 -3 -12 -38 -59 -0 -0
-1 -3 -0 -0 -0 -0 -0 -0 -0 -0 -27 -0 -0 -0 -0 -0 -0 -0 -0 -0 -0 -0 -0 -0 -2 -3 -12 -37 -47 -33 -39 -0
-0 -0 -0 -0 -0 -0 -0 -0 -0 -0 -0 -0 -0 -0 -0 -0 -0 -0 -0 -0 -0 -0 -0 -1 -1 -0 -0 -0 -46 -40 -28 -34
-0 -1 -3 -4 -3 -1 -0 -2 -1 -0 -4 -0 -0 -0 -0 -0 -0 -0 -0 -0 -0 -0 -0 -0 -0 -0 -0 -0 -0 -53 -3 -39
-2 -14 -0 -26 -8 -0 -9 -21 -16 -0 -0 -0 -0 -0 -0 -0 -0 -0 -0 -0 -0 -0 -0 -0 -1 -2 -0 -0 -1 -7 -8 -2
-8 -0 -0 -0 -0 -0 -0 -0 -0 -0 -0 -0 -0 -0 -0 -0 -0 -0 -0 -0 -0 -0 -0 -0 -2 -2 -11 -0 -0 -9 -5 -0
-0 -0 -0 -79 -0 -0 -4 -0 -0 -0 -0 -0 -0 -1 -0 -0 -0 -0 -0 -0 -2 -1 -2 -2 -2 -4 -5 -0 -9 -6 -6 -4
-0 -0 -0 -0 -0 -0 -0 -0 -1 -7 -6 -2 -4 -5 -0 -0 -0 -2 -2 -0 -1 -2 -0 -0 -0 -0 -0 -2 -2 -6 -0 -0
-25 -0 -0 -0 -0 -0 -1 -5 -13 -13 -7 -1 -0 -0 -0 -0 -0 -0 -0 -0 -0 -0 -0 -2 -3 -2 -5 -11 -0 -0 -0 -0
-0 -0 -0 -0 -0 -0 -0 -1 -3 -24 -76 -0 -0 -2 -0 -0 -0 -0 -0 -0 -0 -0 -0 -6 -3 -1 -0 -0 -0 -0 -0 -0
-0 -0 -0 -0 -0 -0 -0 -0 -2 -6 -42 -25 -19 -11 -0 -0 -0 -0 -0 -0 -0 -0 -3 -7 -9 -6 -0 -0 -0 -0 -0 -0
-0 -0 -0 -0 -0 -0 -0 -0 -0 -3 -5 -9 -31 -0 -0 -0 -0 -0 -0 -0 -0 -10 -6 -3 -1 -0 -0 -0 -0 -0 -0 -0
-0 -0 -0 -0 -0 -0 -0 -0 -0 -0 -2 -9 -45 -99 -0 -7 -0 -0 -0 -0 -0 -7 -5 -0 -0 -0 -0 -0 -0 -0 -0 -0
Wind_Speed
5 6 7 9 14 16 16 13 16 9 11 16 17 16 17 19 23 24 26 27 28 31 33 34 35 36 37 38 40 41 42 42
12 12 14 14 17 18 14 16 19 15 17 19 22 24 26 25 26 27 28 28 31 36 38 39 40 40 40 40 41 42 42 40
15 14 15 17 17 16 16 16 18 21 19 20 21 24 24 25 26 30 31 33 36 41 39 38 36 37 39 39 40 42 42 41
15 16 17 17 18 18 18 18 20 22 23 23 25 27 28 29 31 36 37 41 41 36 36 37 37 38 41 42 41 42 43 42
15 16 16 17 18 19 19 20 20 21 23 22 25 26 29 31 35 38 37 32 34 35 38 39 39 39 41 41 41 42 42 45
17 17 16 17 18 20 21 20 22 23 23 24 26 32 35 35 33 33 34 34 36 39 40 41 41 42 43 42 41 41 39 40
16 15 16 17 19 21 23 25 25 23 24 26 32 32 31 33 34 35 36 37 39 39 41 42 41 41 42 41 38 38 39 38
17 17 19 20 22 23 24 29 32 31 28 29 29 30 33 35 36 37 40 41 39 41 41 42 41 41 39 39 39 36 37 37
19 20 21 23 26 28 29 29 32 32 30 31 31 33 35 36 37 38 38 38 40 41 42 43 41 39 40 40 39 37 36 38
18 19 18 22 25 28 30 28 29 31 31 31 33 35 37 38 36 36 37 37 39 42 43 44 42 41 40 39 38 39 39 38
22 26 29 29 32 33 33 32 33 33 34 36 36 39 36 34 35 36 36 39 42 43 43 44 43 41 39 40 39 36 35 32
24 28 31 32 35 35 32 34 35 36 37 38 38 35 34 34 35 36 38 41 42 41 41 41 40 39 36 34 32 31 31 33
29 31 34 36 37 37 37 37 37 37 38 35 36 35 35 37 37 37 38 38 38 39 40 40 37 35 33 31 30 29 30 31
30 33 36 39 40 40 39 37 35 34 35 34 34 34 35 37 37 35 35 37 38 38 39 37 36 34 32 32 33 33 34 36
33 36 38 39 40 38 37 38 35 34 34 29 33 35 33 34 33 35 38 38 39 37 35 34 34 34 35 33 34 36 38 39
35 39 40 40 39 37 38 37 36 37 34 31 38 33 31 31 33 36 36 36 35 34 35 34 34 33 31 33 35 37 38 40
38 41 39 38 39 39 40 38 39 33 36 38 40 37 30 33 32 36 34 34 34 34 33 33 33 33 31 34 37 38 39 40
40 38 37 38 39 40 41 43 42 40 39 38 37 32 31 28 31 35 33 32 32 32 31 31 31 33 33 37 36 37 37 40
36 37 38 38 40 40 42 44 46 45 43 37 35 35 28 25 32 31 28 28 30 28 30 31 32 33 37 38 35 34 35 36
Wind_Direction
85 87 77 26 352 353 359 10 12 15 16 4 359 357 357 356 353 349 350 345 347 343 338 335 332 328 326 326 322 321 319 318
27 16 3 357 354 350 8 6 2 6 352 349 348 347 346 347 347 350 347 344 341 337 333 330 329 326 325 325 323 321 320 319
7 1 354 355 360 10 2 3 355 349 349 350 349 344 343 344 348 343 342 341 338 331 326 327 330 329 327 328 327 323 320 321
2 359 357 358 355 357 360 359 352 347 347 348 345 343 341 337 334 330 328 325 326 328 328 330 330 329 325 324 323 321 319 318
12 10 4 4 359 358 356 354 353 350 347 342 340 337 332 329 329 328 328 333 333 333 330 329 328 327 325 324 323 320 319 315
3 5 5 1 359 355 352 349 345 343 342 339 337 333 331 331 334 334 335 338 334 331 330 327 326 325 323 321 321 320 320 317
3 6 5 4 360 351 346 342 343 341 338 339 335 335 336 336 335 335 335 333 331 329 328 326 325 325 322 323 326 324 322 320
1 2 357 353 350 349 346 340 338 338 337 338 339 339 338 336 336 334 332 331 331 331 330 328 326 325 326 326 324 323 322 320
358 352 348 348 346 343 341 342 340 340 340 338 340 341 338 336 335 333 332 332 331 331 333 331 331 329 327 325 324 322 322 320
357 355 360 355 349 347 344 343 342 340 341 342 339 337 335 333 332 332 332 335 334 332 331 329 329 328 328 326 323 320 320 318
347 347 344 347 347 347 346 344 342 342 340 337 335 333 333 335 335 334 336 334 333 332 332 331 330 330 329 327 324 323 322 323
349 350 350 348 345 343 344 342 341 337 336 335 333 334 336 336 337 337 336 334 333 333 333 332 331 331 332 333 330 330 328 324
344 344 343 342 343 342 340 338 336 335 335 336 336 337 338 336 335 335 336 335 336 335 334 333 334 335 335 334 332 331 327 324
346 344 342 340 339 339 336 336 337 337 336 336 337 337 338 337 336 336 338 338 337 338 337 337 338 338 338 336 335 335 331 326
344 342 341 341 339 338 339 339 340 336 333 334 338 335 335 336 337 339 337 338 338 339 340 340 340 339 337 339 337 333 328 325
342 340 340 340 341 341 340 339 338 339 336 332 332 330 330 333 336 338 338 339 340 342 341 340 340 340 343 341 338 334 331 327
340 339 341 342 342 342 342 340 340 339 334 328 332 330 329 337 338 340 339 340 342 341 341 341 342 344 344 342 340 335 332 328
340 342 343 344 344 343 342 341 339 336 332 331 336 336 332 333 336 339 339 341 343 343 343 344 345 345 345 342 340 337 334 330
343 343 343 344 342 342 341 341 339 336 335 336 333 334 331 333 341 340 341 344 346 346 348 347 346 344 341 339 340 340 338 336